Location: Le Domaine
(47.0333°N, 76.5361°W)
Time: 12:27:42
(UTC-04:00)

ISS - Visible Passes

Search period start: 21 March 2019 00:00
Search period end: 31 March 2019 00:00
Orbit: 406 x 411 km, 51.6° (Epoch: 21 March)

Date Brightness Start Highest point End Pass type
(mag) Time Alt. Az. Time Alt. Az. Time Alt. Az.
21 Mar -1.8 20:04:45 10° SSE 20:06:18 13° SE 20:07:15 12° ESE visible
21 Mar -1.4 21:39:05 10° SW 21:40:02 18° SW 21:40:02 18° SW visible
22 Mar -3.5 20:48:11 10° SW 20:51:21 44° SSE 20:51:49 41° ESE visible
23 Mar -2.7 19:57:32 10° SSW 20:00:22 27° SE 20:03:13 10° E visible
23 Mar -3.0 21:33:29 10° WSW 21:36:09 50° WNW 21:36:09 50° WNW visible
24 Mar -3.9 20:42:20 10° WSW 20:45:38 89° SSE 20:47:32 23° ENE visible
24 Mar -0.9 22:19:20 10° WNW 22:20:17 17° WNW 22:20:17 17° WNW visible
25 Mar -2.9 21:28:02 10° W 21:31:12 42° NNW 21:31:30 41° N visible
26 Mar -3.2 20:36:44 10° W 20:39:59 54° NNW 20:42:37 15° ENE visible
26 Mar -1.2 22:13:52 10° WNW 22:15:21 22° NW 22:15:21 22° NW visible
27 Mar -2.6 21:22:34 10° WNW 21:25:40 35° N 21:26:22 31° NNE visible
28 Mar -2.6 20:31:14 10° W 20:34:23 39° N 20:37:18 11° ENE visible
28 Mar -1.6 22:08:14 10° WNW 22:10:02 26° NW 22:10:02 26° NW visible
29 Mar -2.6 21:17:00 10° WNW 21:20:06 36° N 21:20:55 30° NE visible
29 Mar -0.3 22:53:37 10° WNW 22:53:39 10° WNW 22:53:39 10° WNW visible
30 Mar -2.5 20:25:42 10° WNW 20:28:47 35° N 20:31:47 10° ENE visible
30 Mar -2.1 22:02:27 10° WNW 22:04:30 33° NW 22:04:30 33° NW visible
